Вернуться в каталог

CZ-4 DEB

АктивенPO
NORAD 26143·DEBRIS·🇨🇳 China

Запущен Oct 14, 1999 с Taiyuan Satellite Launch Center

Loading…

Ближайшие Пролёты (ближайшие 24 часа)

TLE

СвежийSource: Space-Track

Эпоха: Sep 14, 2026, 08:54 UTC

1 26143U 99057AF  26257.37139310  .00000192  00000-0  19031-3 0  9994
2 26143  99.0061 209.8807 0474660 258.7500 258.9513 13.47711142299735

Отслеживайте CZ-4 DEB в реальном времени с AllMySat

Download on the App Store